Find Starlink 4167

NORAD ID: 53033 Int'l Des: 2022-076 Owner: SPXS Country: US Constellation: starlink operational
LEOCIRCULAR

当前视图

正在加载3D地球...

关于 Starlink 4167

正在加载描述...

即将过境

Passes for default location (London). Set your location on the main map for personalized predictions.

高度历史

Loading altitude history...

两行轨道根数

1 53033U 22076AZ 26148.97420001 -.00000601 00000-0 -19669-4 0 9999
2 53033 53.2035 73.7029 0001799 91.1839 268.9359 15.08844419215249
Epoch: May 28, 2026 • Age: 30 hours

当前状态

高度 546.8 km
速度 7.59 km/s
星下点 -22.90°S, 55°W
发射日期 Jul 7, 2022
运行时间 3.8 years
类型 internet

技术详情

分类 Payload
质量 297.00 kg
干质量 275.00 kg
总质量 297.00 kg
长度 0.20 m
直径 2.80 m
跨度 9.00 m
形状 Box + pan
制造商 SPXS
平台类型 Starlink
阶段状态 In Orbit
所有者/国家 SPXS/US

Most Searched